Theta_e
327 322 329 333 336 338 339 338 338 337 337 338 338 338 338 338 338 339 339 338 338 336 334 333 330 329 329 331 332 333 333 333 333 333 333 334 334 335 335 336 336 337 338 338 338 337 336 335 334 331 328 328 329 329 329 329 330 331 331 332 332 331 331 332 332 332 333 333 333 333 333 332 332 331 330 329 328 329 329 329 329 329 330 330 329
320 321 329 334 336 337 337 337 338 336 336 337 337 337 337 338 338 339 338 337 335 333 334 335 332 331 333 333 333 333 333 333 333 333 333 333 333 333 334 334 334 334 335 336 337 336 335 335 334 332 330 329 330 330 330 330 330 330 329 329 330 330 331 332 332 332 332 332 332 332 331 331 332 332 331 330 330 330 330 330 329 329 328 328 328
315 319 329 336 336 336 336 336 336 335 335 336 336 337 337 337 338 338 337 335 333 334 336 336 334 333 334 334 334 333 332 332 332 332 332 332 332 332 333 333 333 333 333 334 335 335 334 334 333 332 331 329 330 330 330 330 330 329 328 327 327 328 330 332 332 332 332 331 330 330 330 331 331 331 330 329 329 329 329 329 329 329 327 326 326
316 320 329 335 335 335 335 335 335 334 333 335 336 336 337 337 337 338 337 335 334 335 336 335 334 333 333 332 332 332 331 332 332 332 332 332 332 332 332 332 332 332 332 333 333 333 333 334 333 332 330 330 331 330 330 329 330 329 329 328 327 327 328 330 331 330 329 329 329 329 331 331 331 330 329 327 327 327 327 327 327 327 326 324 324
320 325 331 334 335 335 333 334 336 333 332 335 337 337 337 337 337 338 337 336 334 334 335 335 334 333 333 332 332 331 331 331 331 332 331 332 331 332 331 331 331 332 332 332 332 332 333 333 333 331 329 330 332 331 330 328 328 329 329 329 328 328 328 329 329 329 329 329 329 329 329 329 329 330 329 327 327 327 326 325 325 325 325 324 323
323 329 333 334 334 333 332 334 334 333 333 335 337 337 337 337 337 338 337 336 334 334 335 335 334 334 333 333 332 332 332 332 332 331 331 331 331 332 332 332 331 331 331 331 331 332 332 332 331 330 329 329 330 331 329 326 326 328 329 329 329 329 328 328 328 328 328 328 328 327 326 326 326 327 328 327 327 326 326 325 323 324 324 323 320
324 331 334 333 332 331 333 334 333 334 335 336 337 337 337 338 338 337 337 336 334 334 334 333 333 333 332 330 330 331 331 331 331 331 331 331 331 331 331 331 331 331 331 331 331 331 332 332 331 330 330 330 330 330 329 327 325 326 327 327 327 326 326 325 325 324 324 324 324 324 324 324 324 326 327 326 326 325 324 324 323 323 323 322 318
324 331 332 331 331 333 335 334 333 334 335 336 337 337 336 337 336 336 336 336 334 333 333 333 333 332 330 329 330 331 331 331 331 330 330 330 330 331 330 330 330 330 330 331 330 330 331 331 331 330 330 329 329 330 330 328 326 325 325 325 324 323 323 323 323 322 321 321 321 322 322 323 325 327 326 325 325 324 323 322 322 323 323 323 321
326 330 330 330 333 335 334 333 333 334 335 336 337 336 336 336 335 335 335 335 334 332 332 333 332 331 330 331 331 331 331 331 329 328 329 329 329 329 330 330 330 330 330 330 330 330 330 331 331 330 330 329 329 330 330 329 327 326 325 324 324 324 323 323 322 321 319 319 321 322 324 325 326 326 326 325 324 322 321 321 322 322 322 323 323
327 329 331 332 334 335 333 335 335 335 335 335 336 336 336 335 333 334 333 333 333 332 332 332 331 330 330 331 331 331 330 330 329 329 329 330 330 329 330 329 329 330 330 330 330 330 330 330 330 330 329 328 328 328 329 329 327 326 325 325 324 324 324 323 322 320 319 319 321 323 325 326 326 326 326 326 324 321 320 320 322 322 322 322 322
325 328 331 333 334 332 333 335 334 335 335 335 336 336 335 333 332 331 331 330 331 331 331 330 330 330 330 330 331 331 331 330 330 330 330 331 331 330 330 330 330 330 330 330 329 330 330 330 330 329 328 327 328 327 328 328 327 326 325 325 324 324 324 323 322 320 320 320 320 322 324 324 324 325 326 325 323 322 321 320 321 321 322 322 321
323 328 331 333 332 330 331 332 332 335 335 336 336 336 334 332 331 330 330 330 330 330 330 330 330 330 330 331 331 329 329 329 328 328 329 330 330 329 329 328 329 329 329 330 329 329 329 330 330 329 328 327 327 326 326 327 326 325 325 324 324 324 324 323 322 321 321 321 320 321 322 323 324 325 325 324 322 321 321 321 321 321 321 321 321
322 329 332 332 332 330 330 330 331 333 335 336 336 335 334 332 331 330 331 331 330 330 330 330 329 329 329 331 331 327 327 328 326 324 326 329 329 328 328 327 328 328 328 328 328 328 329 329 329 328 327 326 326 326 325 325 325 325 324 324 324 324 324 324 323 322 322 321 320 321 323 324 324 324 325 324 322 321 321 321 320 320 320 320 320
321 329 332 332 332 332 331 332 331 332 333 335 336 335 335 334 332 330 330 330 330 329 329 329 328 329 329 330 330 327 328 328 326 325 325 326 327 327 326 326 327 328 328 327 327 327 328 328 328 328 326 325 325 326 325 325 325 325 325 325 325 325 324 324 324 324 322 322 321 321 322 323 324 324 325 323 321 321 321 320 320 320 319 319 319
319 328 332 332 332 332 331 332 332 332 330 332 335 335 335 334 333 330 327 327 329 329 328 328 327 328 328 329 330 330 331 329 328 327 325 324 324 325 325 326 327 328 327 327 327 327 327 327 327 327 326 325 325 326 326 326 325 325 325 325 325 324 324 324 324 324 323 322 322 321 321 322 323 324 324 323 322 321 320 320 320 320 319 318 318
319 325 330 332 332 332 331 332 332 331 330 330 333 335 334 333 332 329 327 327 328 328 328 327 327 328 329 329 329 330 330 328 328 327 326 324 323 324 325 326 326 326 326 326 327 326 325 325 326 326 326 325 324 325 325 326 326 326 326 325 325 325 325 325 325 324 323 323 322 321 321 321 322 324 324 323 322 321 320 321 321 320 318 318 318
319 323 328 331 332 332 331 332 331 330 330 331 332 333 332 331 331 329 328 327 326 326 326 327 327 328 329 328 328 329 328 327 328 327 326 325 325 325 324 325 325 325 325 325 325 324 323 323 323 324 325 325 324 324 324 326 326 326 326 326 325 325 325 325 325 324 324 323 322 322 322 322 322 323 324 324 323 321 321 321 321 320 319 319 319
319 321 325 330 332 332 331 331 330 329 330 332 332 331 330 329 330 329 328 327 326 325 324 325 326 328 329 327 327 328 327 327 328 327 324 324 323 321 320 321 321 321 321 320 320 320 320 320 321 322 322 323 323 323 323 324 325 326 326 326 326 325 325 325 325 324 324 324 323 322 322 322 322 323 324 324 324 323 322 321 321 320 319 319 319
319 320 323 328 331 332 331 331 330 329 329 331 330 329 328 326 326 327 327 326 325 326 324 324 325 326 327 327 326 326 326 326 327 327 324 324 322 320 318 317 316 316 315 314 315 317 318 318 319 319 320 320 321 321 322 322 323 325 325 326 325 324 324 325 325 325 325 324 323 323 322 323 323 324 324 324 325 324 323 322 321 320 320 320 319
320 320 322 326 329 331 331 331 330 329 329 329 329 328 328 325 322 321 323 323 324 327 325 323 324 325 325 325 325 324 326 326 326 326 324 324 323 321 320 317 315 314 314 314 314 314 315 315 315 315 316 316 317 318 319 320 321 322 323 324 323 323 324 324 324 324 324 324 324 323 323 323 323 324 324 324 324 324 323 322 322 321 320 320 319
322 319 321 322 324 327 329 330 330 329 328 327 327 325 326 324 319 316 318 320 323 325 322 319 321 324 324 325 323 322 323 325 325 324 323 323 323 321 319 317 315 315 315 315 315 315 315 315 316 316 316 315 315 315 316 317 319 320 321 322 322 323 323 322 322 322 322 323 323 322 323 323 323 323 324 324 324 324 324 323 323 322 321 321 320
325 320 319 319 319 321 325 329 329 328 327 326 325 322 322 321 316 314 316 318 320 319 316 314 316 320 322 323 322 320 320 321 322 322 322 322 321 320 318 316 316 316 316 316 316 317 318 319 319 319 319 319 318 318 317 317 318 319 320 321 321 321 321 320 320 320 320 320 320 321 322 323 323 323 324 325 325 325 325 324 324 323 322 322 321
327 323 320 319 318 317 320 325 326 326 325 324 322 320 318 318 316 315 314 314 315 313 313 313 312 315 318 320 321 320 319 318 319 320 321 320 319 317 316 316 316 316 316 316 317 317 318 319 319 319 320 320 320 320 320 319 320 320 320 320 320 320 320 320 320 319 319 319 319 320 320 321 322 322 323 325 325 325 325 325 324 324 323 323 322
330 326 323 320 319 317 316 319 322 322 322 321 319 318 316 316 316 315 313 312 312 311 314 316 313 313 315 317 319 318 318 316 316 317 317 317 316 316 315 315 315 316 316 316 316 316 316 317 317 318 318 319 319 319 319 319 319 319 319 319 319 319 319 319 319 319 319 318 318 318 319 319 320 320 322 324 325 325 325 325 325 325 324 324 324
331 329 326 322 320 319 317 316 318 319 318 317 316 316 315 315 315 315 313 312 311 312 317 319 316 315 316 316 317 317 317 316 315 314 314 314 314 314 314 314 315 316 316 316 316 315 315 315 315 316 316 317 317 318 318 317 317 316 317 316 316 316 317 317 317 317 317 317 317 317 317 317 318 318 319 321 323 324 324 324 325 325 325 325 325
332 331 329 326 322 320 319 317 317 317 316 316 315 315 315 314 315 315 314 313 312 313 318 320 318 318 319 318 319 319 318 317 315 312 312 312 313 313 313 313 314 315 316 316 316 315 315 315 315 315 315 316 317 317 317 316 315 315 315 315 315 315 315 316 316 316 316 316 316 316 317 316 317 316 317 317 319 321 323 324 324 324 325 325 325
333 333 333 331 326 321 320 319 318 317 316 316 315 315 315 315 315 315 314 314 313 314 317 320 320 320 320 320 321 321 320 319 317 313 311 311 311 311 312 313 313 314 314 314 315 316 316 317 316 316 316 315 316 316 316 316 315 315 316 316 316 316 316 316 316 316 316 316 316 316 316 316 316 316 316 316 317 319 321 322 323 324 324 325 325
333 334 334 334 331 326 321 321 320 319 318 317 316 316 316 315 315 315 315 315 315 314 316 320 322 321 321 321 322 322 322 322 320 316 313 313 313 312 312 314 314 315 316 317 318 319 319 318 319 319 318 317 316 316 316 316 317 318 318 319 320 320 320 320 319 319 319 319 319 319 318 318 319 319 319 318 318 318 319 320 322 323 324 324 325
333 333 335 335 334 330 324 322 322 321 321 320 319 318 318 318 316 316 316 316 316 316 316 319 322 322 322 322 322 322 323 323 322 320 318 318 318 317 317 318 318 318 320 321 322 322 322 321 321 321 321 321 320 320 319 320 321 321 322 322 322 322 323 323 323 323 323 323 323 323 323 323 323 323 322 321 321 320 319 320 321 322 323 324 324
334 333 335 335 335 333 329 327 325 322 322 323 322 322 323 322 321 319 317 317 316 317 318 319 321 322 323 323 323 323 323 324 322 321 321 322 322 322 322 322 322 322 322 323 323 323 323 323 322 322 323 323 323 323 323 323 323 324 323 323 322 322 322 323 325 325 324 324 324 324 324 324 324 324 323 323 322 321 320 320 320 321 322 324 324
334 333 334 335 335 334 332 331 330 326 324 325 325 325 326 326 326 324 321 319 318 318 321 322 321 322 323 323 323 323 324 324 323 322 322 324 325 325 325 325 324 324 323 324 324 324 324 324 324 324 324 324 325 324 324 324 324 324 323 322 322 323 324 324 324 324 324 324 324 324 323 323 324 323 323 323 322 322 321 320 320 320 321 322 322
333 333 334 336 336 335 334 334 333 331 329 328 328 328 328 328 328 326 324 323 322 321 324 326 325 324 324 323 323 324 326 326 325 324 323 325 325 325 326 325 325 325 324 324 324 324 324 325 324 324 325 324 325 325 324 323 323 323 322 323 323 324 324 324 323 323 324 324 324 324 323 323 323 323 322 322 322 322 321 321 320 320 320 320 320
332 333 335 336 336 335 335 335 334 334 333 332 331 331 331 330 329 327 327 326 326 326 326 328 327 327 327 327 327 327 328 328 327 325 325 325 325 326 326 325 326 325 325 324 324 325 325 325 324 324 325 325 325 324 323 322 322 322 322 324 324 324 324 323 323 323 323 323 323 323 323 322 322 321 321 321 321 321 321 321 320 320 320 320 319
332 333 335 336 337 336 335 336 335 335 335 334 333 333 333 332 330 328 328 328 329 329 329 329 328 328 329 328 329 329 329 329 328 327 326 326 325 326 326 326 326 325 325 325 324 325 325 325 325 325 325 325 324 323 322 322 321 322 323 324 324 324 325 325 324 323 322 322 322 322 321 321 320 320 320 320 321 321 320 320 320 320 319 319 319
333 334 335 335 336 336 336 336 336 336 336 335 334 334 334 333 332 330 328 329 329 330 330 330 329 329 329 329 329 329 329 329 328 328 327 326 326 326 326 326 326 326 326 326 326 326 325 325 325 325 325 324 324 323 323 323 322 322 323 323 323 324 325 325 324 323 323 322 321 321 321 320 320 320 320 320 320 320 319 319 319 319 318 318 318
334 335 335 335 336 336 336 336 335 336 336 336 336 335 334 334 334 332 330 329 329 329 330 331 330 329 329 329 329 329 329 329 328 328 327 327 327 327 327 326 325 326 326 326 326 326 325 325 324 324 323 323 324 323 323 323 323 323 323 323 323 323 324 324 323 323 323 321 320 320 320 320 320 320 319 318 317 317 317 317 317 317 317 317 316
334 335 335 335 336 335 335 336 335 336 335 336 336 335 335 334 334 334 332 330 330 330 330 330 330 330 330 329 329 329 329 329 328 328 328 328 327 326 326 325 324 324 324 325 325 325 324 324 324 324 323 324 324 323 323 323 324 324 324 323 322 322 323 323 323 322 321 320 319 320 320 320 320 319 317 316 315 315 315 315 316 316 316 316 316
333 334 335 335 335 334 335 335 335 335 335 336 336 336 336 335 335 335 333 332 330 330 330 330 330 330 330 330 329 329 329 329 329 329 328 328 327 326 325 325 324 324 323 324 324 324 323 323 323 322 323 323 324 324 324 325 325 325 325 324 322 322 322 323 323 321 320 319 319 319 319 319 319 317 315 315 315 315 314 314 315 316 316 316 315
331 332 333 334 334 334 334 334 335 335 335 336 336 336 336 336 335 334 334 332 331 331 330 330 330 331 330 330 329 328 328 328 328 327 328 328 327 326 326 325 325 325 325 325 325 324 323 323 323 322 323 323 324 325 325 325 325 325 325 324 323 322 320 322 322 319 318 318 317 318 319 318 316 314 314 315 315 315 313 313 313 314 313 313 313
331 331 331 332 332 333 333 333 333 334 335 335 336 336 336 336 335 334 333 332 332 331 331 330 330 331 330 330 330 328 327 327 326 326 326 327 326 326 326 326 326 327 326 327 327 326 325 324 324 324 324 324 324 325 325 325 324 324 324 323 322 320 319 320 319 318 317 316 317 319 318 316 314 314 314 313 314 313 310 309 309 309 308 308 308
330 331 330 331 331 332 332 332 333 333 334 335 335 336 336 335 334 333 333 333 332 331 331 331 331 331 331 330 330 329 328 328 327 327 326 326 326 327 327 326 327 328 327 327 327 327 327 327 326 326 327 326 325 325 325 324 323 323 322 321 321 319 318 318 318 318 317 316 318 318 315 314 315 314 311 310 309 307 304 303 303 303 302 302 302
330 331 330 331 331 331 331 331 332 332 333 334 334 335 336 335 334 334 333 333 332 331 330 331 331 331 331 331 331 330 330 329 329 329 328 328 327 327 327 327 328 328 327 327 327 327 327 328 327 327 327 326 325 324 323 322 322 321 320 319 319 318 318 318 318 318 316 317 318 315 313 314 314 312 308 304 302 300 299 299 299 298 297 298 299
331 330 330 331 331 331 331 331 331 331 332 333 333 334 334 335 335 334 334 334 333 332 330 330 331 331 331 331 330 330 330 330 329 328 328 328 328 328 328 328 328 327 326 326 327 327 327 328 327 326 326 325 323 322 321 321 321 321 320 319 318 318 318 317 317 316 315 317 315 312 312 313 312 309 304 299 297 297 296 296 296 296 296 296 297
330 330 330 331 331 331 331 331 332 332 332 332 332 333 334 334 334 334 334 334 333 332 330 329 330 331 331 331 330 329 328 328 328 327 326 327 328 328 327 326 326 326 326 327 327 327 327 327 326 324 324 323 321 320 321 320 320 320 320 319 318 318 319 318 316 315 315 315 311 308 309 308 305 302 298 295 296 296 295 295 295 295 296 296 296
328 330 330 330 331 331 331 332 332 332 332 332 332 333 333 333 334 333 333 333 333 332 331 330 330 330 329 330 329 327 326 326 327 327 328 328 329 329 328 327 327 327 327 327 326 325 325 325 324 323 322 321 320 320 319 319 319 319 318 318 318 318 319 316 314 315 314 311 306 304 303 301 299 297 295 295 296 295 295 295 295 295 296 296 296
328 328 330 330 331 331 331 331 332 332 332 332 332 332 333 333 333 333 332 333 332 332 332 331 330 330 330 329 327 327 328 328 327 327 330 330 329 328 328 327 327 328 327 326 325 324 323 323 322 322 321 321 320 319 319 319 318 318 317 317 317 316 316 314 313 314 312 310 307 302 298 297 296 294 295 295 295 295 295 295 295 295 295 295 295
327 328 329 329 330 331 331 331 332 332 332 332 332 332 332 333 333 333 333 332 332 332 332 331 329 329 330 329 328 328 328 326 326 328 329 328 327 326 325 326 325 325 325 324 323 322 321 321 320 320 320 319 319 319 318 318 317 317 316 315 315 314 312 311 312 312 310 309 307 302 300 299 296 294 295 295 295 295 295 295 295 295 295 294 294
325 327 328 329 330 330 330 331 332 332 332 332 331 332 332 332 333 332 333 332 332 332 332 330 328 327 328 328 329 329 327 325 326 328 327 326 325 325 324 323 323 323 322 322 321 321 320 319 318 318 318 318 317 317 317 316 315 315 313 313 312 310 307 308 310 308 306 307 305 302 301 299 295 294 295 295 295 295 294 294 295 295 295 294 294
324 326 328 329 329 330 330 331 331 332 332 332 331 332 332 332 332 332 333 333 332 332 331 330 329 328 327 327 328 329 328 327 327 326 325 325 324 323 323 322 320 320 320 320 320 320 319 317 316 315 315 315 314 314 314 313 313 312 311 310 307 303 302 306 307 304 303 306 306 303 299 297 295 294 294 295 295 294 294 294 294 294 294 294 293
322 325 326 328 329 329 330 330 331 331 331 331 331 331 331 331 332 332 332 332 332 332 331 330 329 329 328 328 328 327 327 327 326 325 324 323 323 322 321 319 317 317 317 317 317 316 315 314 314 313 313 313 312 311 311 311 311 310 308 305 302 299 300 303 304 302 302 303 304 301 297 296 295 295 294 295 294 293 294 294 294 294 294 294 294
320 323 325 327 328 329 329 330 330 331 331 331 331 331 331 331 331 332 332 332 332 331 330 330 330 329 329 328 328 327 326 326 325 324 323 321 322 321 319 317 316 316 315 316 315 313 311 310 310 310 310 310 310 310 310 309 307 305 301 298 297 298 300 301 301 300 300 300 300 298 296 295 295 295 294 293 293 293 293 294 294 294 293 294 294
Wind_Speed
9 9 12 12 12 10 6 7 6 7 9 9 10 9 9 10 12 12 13 14 14 13 12 13 14 15 15 16 17 17 17 15 16 16 15 15 14 13 13 14 13 13 14 14 14 14 14 15 16 16 17 18 18 18 18 18 18 17 16 16 16 15 15 16 16 16 16 16 15 14 15 16 16 16 16 16 16 17 17 16 16 15 16 15 15
9 10 12 13 11 10 9 8 6 5 7 8 9 9 9 10 12 13 13 13 13 13 13 12 14 15 15 16 16 16 16 15 16 16 16 16 15 15 14 15 14 14 14 15 14 14 15 15 15 15 16 17 17 18 18 19 19 18 17 16 16 16 15 15 15 16 16 16 16 16 16 17 16 16 16 16 16 16 16 16 15 15 14 13 13
9 11 13 14 11 10 10 9 7 6 6 8 9 9 9 10 12 13 13 13 13 14 13 12 13 15 15 15 15 15 16 16 16 16 16 16 16 15 15 16 16 15 15 15 15 15 15 15 15 15 15 16 16 17 17 18 18 18 18 17 16 15 15 14 14 15 16 16 16 17 17 17 16 15 14 15 15 15 15 14 14 14 13 12 12
11 13 13 12 11 11 10 9 8 7 7 10 10 9 10 11 12 13 13 13 13 13 12 12 13 14 14 14 15 15 15 15 15 15 15 15 16 16 16 16 16 16 16 16 16 16 16 16 15 15 16 16 16 16 16 17 17 17 18 17 17 16 16 15 14 14 14 15 15 16 17 17 16 14 13 13 13 12 12 11 11 12 12 12 11
15 14 13 12 11 11 10 10 9 7 8 10 11 10 11 12 13 12 12 12 13 14 12 12 12 13 14 15 14 15 15 15 14 15 14 15 15 15 16 16 16 16 16 16 16 16 15 15 15 14 15 15 15 14 15 16 16 17 17 17 17 17 17 16 15 14 14 14 15 15 15 15 16 15 13 13 13 12 12 11 10 10 11 11 11
17 16 14 13 12 12 11 10 9 9 9 11 11 11 12 13 12 11 11 11 12 14 13 12 13 14 14 14 14 14 15 14 14 14 14 15 15 15 15 16 16 16 16 16 16 16 15 15 15 14 14 14 14 14 14 15 16 17 17 16 17 16 16 16 15 14 13 13 13 12 12 12 13 13 12 11 11 11 11 10 10 10 11 11 11
17 17 15 13 12 12 11 9 9 10 10 11 12 12 13 13 12 12 11 11 11 13 13 12 13 14 14 13 14 14 14 13 14 14 14 14 15 15 15 15 15 15 15 15 15 15 15 14 14 14 14 13 13 13 13 14 16 17 16 16 16 16 15 15 14 14 13 12 11 11 11 11 11 11 11 10 9 8 9 9 10 11 11 12 12
17 17 15 13 13 13 10 9 9 10 11 11 12 12 13 13 13 13 12 11 11 12 13 12 11 12 13 13 13 13 13 13 13 13 14 14 14 14 15 14 14 14 14 15 14 14 14 13 13 13 13 13 13 13 12 14 15 16 15 15 15 15 15 15 15 15 15 14 13 12 12 11 12 12 11 10 9 10 10 11 12 12 12 12 13
18 17 15 16 16 14 11 10 10 10 11 11 12 13 13 13 13 13 12 11 11 12 13 12 11 13 12 12 13 12 12 12 12 12 13 14 13 14 15 14 14 14 14 14 13 13 13 13 13 12 13 12 13 13 12 13 14 14 14 14 14 14 14 14 15 16 16 15 13 13 13 12 12 12 12 10 10 11 11 12 13 13 12 12 12
18 17 17 18 17 15 13 11 11 11 11 12 12 13 13 13 12 12 11 11 11 12 13 12 12 13 12 12 12 11 11 11 12 13 13 13 13 13 14 13 13 13 13 13 12 12 12 12 12 12 11 12 13 13 12 11 12 12 12 13 13 13 13 14 15 15 15 15 13 12 12 12 12 12 11 11 12 11 11 12 12 11 11 11 11
17 18 18 18 17 15 15 12 11 11 11 12 12 12 13 12 12 11 10 10 11 12 12 12 12 12 12 11 11 11 11 11 12 13 13 13 13 13 13 13 13 13 13 12 12 11 11 11 11 11 10 12 13 12 12 11 11 11 12 12 12 12 13 14 14 14 14 14 13 11 10 11 12 11 10 11 12 11 12 12 11 11 11 11 12
18 19 19 18 16 15 14 12 11 12 12 12 11 12 12 11 11 10 11 11 12 12 12 11 12 12 11 10 10 9 9 9 10 10 11 12 12 11 11 12 12 12 12 12 11 11 11 10 10 9 9 11 12 12 12 11 11 11 11 11 11 12 13 14 14 13 13 13 12 11 10 11 11 10 10 11 11 10 11 11 11 11 11 11 11
18 19 19 18 16 14 14 12 11 11 12 12 11 11 11 10 10 11 12 12 12 11 11 11 11 11 9 9 9 7 7 8 8 8 10 10 11 11 11 11 11 12 11 11 10 11 10 10 9 8 9 11 11 11 11 11 10 10 10 10 11 11 12 12 12 12 12 13 12 11 11 10 11 10 9 10 11 10 9 9 10 11 11 11 10
19 20 19 18 16 14 13 12 12 11 11 11 11 11 11 10 10 11 12 13 12 10 10 11 11 10 8 8 8 6 7 8 8 8 8 9 9 9 10 10 11 10 10 10 10 10 9 9 8 6 8 10 10 10 10 10 9 9 9 9 9 10 11 11 11 11 11 11 11 10 9 9 10 10 8 9 11 10 8 8 9 10 11 10 9
18 20 19 18 16 14 13 12 12 11 11 10 11 11 11 11 10 10 10 12 12 11 10 10 11 10 8 8 7 8 9 9 8 8 8 8 8 9 10 11 10 9 9 9 8 8 8 8 7 6 7 8 8 8 8 8 8 8 8 8 8 9 10 10 9 9 10 10 11 10 9 9 9 10 8 8 11 10 8 7 9 11 11 11 10
16 18 19 18 16 15 14 13 12 11 10 10 11 10 11 10 10 9 9 10 11 11 10 11 11 10 9 8 8 8 8 8 7 7 8 8 9 10 10 10 8 8 8 7 7 6 6 7 6 6 6 5 6 6 7 7 6 6 6 6 7 8 8 9 8 8 8 8 9 9 9 10 10 10 9 8 8 9 9 9 10 12 12 12 10
15 16 17 17 16 15 14 13 12 11 10 11 11 10 9 8 8 8 8 8 8 9 10 11 12 10 9 9 7 7 7 7 7 7 6 7 10 10 9 9 8 8 7 7 7 7 6 6 6 5 4 3 3 3 4 4 4 4 4 5 6 7 8 8 8 7 8 7 7 8 9 10 10 10 9 8 7 8 9 8 8 10 11 11 10
15 15 15 16 16 15 14 13 12 11 11 11 10 8 7 6 6 6 6 7 7 8 8 10 10 10 8 7 6 5 6 6 6 6 5 6 8 8 8 7 7 7 8 8 8 7 7 6 6 4 3 2 1 1 1 1 2 2 3 4 5 7 7 8 8 8 8 8 7 8 8 9 10 10 9 8 9 8 7 7 8 9 10 9 8
15 14 14 15 15 14 14 13 12 12 11 11 9 7 6 5 5 5 6 6 6 7 7 8 9 8 7 6 5 5 5 5 5 4 4 4 5 6 7 7 7 8 8 9 9 8 8 7 5 4 3 2 1 1 1 1 1 2 2 4 5 7 8 8 9 9 9 9 9 8 8 9 10 10 9 9 12 11 8 8 9 9 7 7 8
15 14 14 14 14 14 14 14 13 12 12 11 10 8 7 5 5 6 6 6 7 7 7 8 8 8 8 6 5 5 6 5 4 3 3 3 3 4 6 7 8 8 8 9 9 9 8 7 6 5 4 3 3 3 2 2 2 3 3 4 5 6 7 8 9 10 10 10 10 10 9 9 10 10 10 11 12 11 9 9 8 7 7 8 9
15 15 14 14 13 13 14 15 14 13 13 12 11 9 8 7 7 7 6 7 8 7 5 6 8 9 8 7 5 5 6 6 5 3 3 2 1 3 5 6 6 7 7 8 8 8 8 7 7 6 6 5 5 4 4 3 3 3 3 4 5 6 8 9 9 10 11 11 12 12 11 10 11 10 11 12 12 11 11 11 10 10 10 11 9
16 16 15 15 14 14 14 16 15 14 13 12 11 9 8 8 8 8 8 8 8 7 5 5 7 9 9 8 6 5 5 6 5 4 3 2 1 2 4 4 5 5 6 6 6 6 6 6 6 6 6 6 5 5 5 4 4 4 5 5 6 7 9 10 10 11 11 12 12 13 13 12 12 11 12 13 13 13 13 13 13 13 14 12 10
17 18 17 16 15 14 15 16 15 15 13 12 11 9 9 9 9 8 8 8 7 6 6 6 6 8 9 8 7 5 4 5 5 5 3 2 0 1 2 3 4 4 4 4 4 4 4 5 5 5 5 5 5 5 5 5 5 5 6 7 7 8 10 11 12 12 12 12 13 13 14 14 13 13 13 13 15 15 15 16 15 14 13 12 12
20 20 19 18 17 15 15 16 15 15 14 13 12 11 10 10 10 9 8 8 7 7 7 7 7 8 8 8 7 6 5 4 4 4 3 2 1 0 1 2 2 2 2 2 2 2 2 3 3 4 4 4 5 5 5 5 6 6 7 8 9 10 11 12 13 13 14 14 14 14 15 15 15 15 14 14 15 16 17 17 17 14 12 13 14
21 21 20 19 18 17 16 16 16 15 14 14 13 12 11 11 10 9 9 8 8 8 8 7 8 9 9 9 8 7 5 4 4 3 3 2 2 1 0 1 1 0 0 0 1 2 2 3 3 4 5 5 6 7 7 7 7 8 9 10 11 12 13 14 14 15 15 15 15 15 15 15 16 16 16 16 16 17 17 17 18 17 16 17 17
20 22 21 21 19 18 17 17 17 16 15 14 13 13 12 12 11 10 10 9 9 9 9 8 8 9 9 8 7 6 5 4 3 3 3 3 2 1 1 0 0 1 1 2 2 3 3 4 4 5 6 7 8 8 9 9 9 10 10 11 12 13 13 14 15 15 15 16 15 15 15 16 16 17 17 18 18 18 18 18 18 19 19 20 20
22 23 23 22 20 20 19 18 18 17 16 15 14 14 13 12 11 11 10 10 10 9 9 8 7 8 7 7 6 5 4 3 2 2 2 2 2 2 2 1 1 2 2 2 2 3 4 4 5 6 7 8 9 9 9 10 11 12 12 12 14 15 15 15 15 16 16 16 17 16 17 17 17 18 18 19 19 19 19 19 19 19 19 20 21
22 24 25 24 23 22 21 20 19 18 17 16 15 14 13 12 12 11 11 11 10 9 8 7 7 7 7 6 5 4 3 2 1 1 1 1 1 2 2 2 2 2 2 2 3 4 5 5 6 7 8 9 9 9 10 11 12 13 15 15 16 18 19 18 18 17 17 18 18 18 18 19 19 19 19 19 20 20 20 20 20 20 20 21 21
22 24 25 25 25 23 22 21 20 19 18 17 16 15 14 13 13 12 11 11 11 9 8 8 7 7 6 6 5 4 3 2 1 1 0 0 1 2 2 2 2 3 3 4 5 6 7 7 8 9 9 10 10 11 11 11 12 14 16 17 18 19 20 21 20 18 18 18 19 19 19 19 20 20 20 20 20 20 20 21 21 21 21 22 22
24 24 25 27 26 24 23 22 21 20 19 18 17 16 15 14 14 13 12 12 11 10 9 9 9 8 7 5 4 3 2 2 1 1 1 1 2 3 4 5 4 5 6 6 7 8 9 9 10 10 11 11 11 12 12 13 13 13 15 17 19 20 20 22 21 19 19 19 19 20 20 20 20 20 20 20 20 20 21 21 21 22 22 23 23
25 24 25 27 27 26 25 23 22 20 19 19 18 17 15 14 14 13 13 12 11 11 10 10 10 9 8 7 5 4 4 3 3 3 3 3 3 4 5 6 6 6 7 7 8 9 10 10 11 12 12 12 13 13 14 15 15 15 17 19 20 21 20 21 20 19 19 20 20 20 20 20 19 20 21 21 21 21 21 21 22 22 23 23 24
25 26 26 27 27 27 26 24 23 21 21 20 19 17 16 14 14 13 13 12 11 11 11 10 9 9 8 8 7 5 4 4 4 4 4 4 5 6 6 7 6 6 7 8 8 9 10 10 12 13 14 14 14 14 15 17 18 18 18 19 21 22 21 21 20 21 21 21 21 21 20 20 20 21 21 21 21 21 21 21 21 22 23 24 24
27 27 27 27 27 27 26 25 24 23 22 22 20 19 17 15 14 14 13 12 12 12 11 10 9 8 7 7 6 5 5 4 5 5 6 7 7 8 8 8 8 8 8 8 8 9 11 12 13 15 15 14 15 16 17 19 20 18 17 19 21 22 22 21 20 21 22 21 21 21 20 21 21 21 20 20 19 20 20 20 21 22 23 23 23
28 28 28 27 27 27 27 26 25 24 23 23 22 20 18 17 15 15 14 13 13 12 11 10 9 8 8 7 7 6 6 5 6 6 7 8 9 9 9 9 9 10 9 9 10 10 11 12 13 15 15 15 16 18 20 20 18 16 18 20 21 21 21 20 20 21 21 20 20 20 20 19 20 20 20 19 18 18 19 20 21 21 22 22 22
29 28 29 28 27 27 27 27 26 25 24 24 23 21 20 18 17 16 16 15 14 13 12 11 10 9 9 8 8 8 7 7 7 7 8 9 10 9 8 8 9 10 10 10 9 9 11 14 15 15 16 16 17 19 19 19 18 18 20 21 20 20 20 19 19 20 19 19 18 18 17 17 19 20 19 18 18 19 19 20 20 21 22 22 22
30 30 30 29 28 28 28 28 27 27 26 25 23 22 21 20 19 17 17 17 16 15 14 13 13 11 10 9 9 9 9 8 8 8 9 9 8 8 8 11 12 12 11 11 10 11 15 17 15 14 17 17 18 18 18 19 20 20 22 22 20 20 19 18 20 19 17 16 16 16 16 17 18 18 18 19 20 20 20 20 20 21 21 22 23
31 31 31 30 30 29 30 29 29 28 26 26 25 23 22 21 21 19 19 19 18 17 15 14 14 13 11 10 9 10 10 9 9 10 10 10 9 9 12 13 12 12 12 12 13 14 15 15 14 13 15 16 16 18 18 20 22 22 22 22 21 20 19 20 19 17 15 14 15 16 17 18 16 17 20 21 21 21 21 20 19 19 20 22 23
31 32 32 32 31 30 30 30 29 29 27 26 25 25 24 23 22 22 21 20 20 18 16 16 15 14 13 12 11 10 9 8 8 9 10 10 10 12 12 9 8 9 9 10 11 11 12 13 13 12 12 14 16 18 21 22 23 22 22 21 20 20 20 19 16 14 13 13 16 19 18 15 15 18 21 20 19 20 21 21 19 19 20 21 23
30 31 32 32 31 31 30 30 30 29 28 28 27 26 25 25 25 25 24 22 21 19 18 18 16 15 14 14 13 11 10 9 9 11 11 12 12 12 11 9 9 9 8 9 9 9 11 11 12 12 12 15 17 19 21 21 21 21 21 20 19 20 18 14 13 11 11 16 21 19 14 14 17 19 20 19 19 21 22 22 21 20 21 22 23
29 30 31 32 32 32 31 31 31 30 30 29 29 29 28 28 28 27 26 25 22 20 20 19 18 17 15 15 15 14 12 11 11 11 11 12 12 12 12 12 13 14 13 12 11 12 13 13 13 14 15 15 16 18 18 18 19 20 20 19 17 18 15 13 10 6 11 21 20 13 12 16 19 19 19 19 19 21 23 23 21 21 22 23 23
29 30 31 32 33 32 32 32 32 31 32 31 31 31 30 29 28 28 27 25 22 20 21 20 19 18 16 16 16 16 15 14 13 11 10 10 11 11 13 13 15 16 15 14 13 13 13 14 14 16 16 15 15 15 14 15 14 15 18 17 17 15 12 12 6 3 18 23 11 9 15 18 18 19 19 19 20 22 23 22 22 23 23 24 24
31 31 32 34 34 33 34 33 32 32 33 33 32 32 32 30 28 28 27 25 23 21 21 21 20 19 18 17 15 16 16 16 16 15 13 12 12 15 16 15 15 15 14 13 13 13 14 14 15 16 15 13 12 10 11 11 9 12 15 13 15 15 13 8 0 10 25 15 6 12 18 17 17 19 19 20 22 22 22 22 23 23 24 24 24
32 32 34 34 34 34 35 34 32 33 33 33 33 32 31 30 29 28 26 25 24 23 21 20 20 19 19 18 17 17 17 16 14 13 14 15 16 18 16 14 14 14 13 14 14 15 14 14 13 12 10 8 8 7 10 10 9 13 11 6 6 9 10 6 7 25 26 8 9 18 17 17 18 18 20 23 23 22 22 23 23 23 23 23 23
31 32 34 34 35 36 36 35 34 33 33 33 33 32 30 28 28 27 25 24 23 22 20 20 20 19 18 19 18 17 16 14 12 12 13 15 15 14 12 12 12 12 13 13 11 9 8 8 8 6 5 5 6 6 8 8 9 10 6 3 3 3 4 5 15 27 19 9 16 20 18 19 20 20 23 24 22 22 23 23 23 23 23 21 21
32 34 35 35 36 37 37 36 35 34 34 34 33 32 30 28 26 24 21 21 20 19 18 19 19 18 18 17 16 16 17 13 10 12 15 15 16 15 14 14 14 15 13 8 4 2 3 4 5 6 6 6 7 6 6 7 8 6 5 2 2 2 2 5 13 13 11 17 19 19 20 20 21 24 26 25 22 24 25 24 24 24 22 22 22
33 34 35 36 36 37 37 36 35 35 34 34 34 33 31 29 27 25 22 20 19 18 18 18 18 18 17 16 14 16 17 13 11 13 14 14 14 12 10 8 8 9 7 4 3 3 4 6 7 8 7 8 8 7 6 8 7 6 6 4 2 4 4 8 7 3 10 15 12 16 19 18 24 26 25 25 24 26 27 25 26 23 21 23 24
34 34 34 35 36 36 36 35 35 34 34 34 33 33 32 31 30 29 27 24 22 21 20 19 18 18 17 14 14 14 13 11 13 14 11 8 6 6 4 3 2 3 3 3 4 4 6 8 9 9 8 8 8 8 7 8 7 6 6 5 6 8 8 8 4 3 8 5 8 17 14 14 23 25 24 23 22 26 27 24 25 22 22 25 25
33 33 33 34 35 35 35 35 35 34 34 34 33 33 33 32 31 30 28 28 26 24 22 20 19 18 15 12 13 14 14 13 13 11 8 7 5 4 4 5 5 5 5 5 5 6 8 9 9 10 10 10 9 8 7 7 7 7 8 8 9 9 8 5 2 4 4 3 8 12 11 18 23 23 23 19 18 23 24 22 21 20 23 26 26
32 32 33 34 34 33 34 33 33 34 34 34 33 33 33 33 32 31 29 28 27 25 22 19 18 16 13 12 12 13 14 15 14 10 8 8 7 7 8 9 8 8 9 9 9 10 11 11 11 11 11 10 8 6 4 5 5 6 8 9 8 9 8 3 3 7 4 4 5 5 13 22 22 25 25 18 20 22 20 18 16 17 22 23 25
29 30 30 31 31 32 32 32 33 33 33 33 33 33 33 32 32 31 30 28 26 24 21 19 17 16 13 13 13 12 13 14 13 10 8 10 11 12 13 12 10 9 9 10 10 10 10 10 9 8 6 5 4 2 1 2 3 4 6 6 7 9 8 3 5 10 5 4 5 7 16 18 17 26 26 21 25 23 18 15 12 16 19 19 22
24 26 27 28 30 30 31 32 32 32 33 33 33 33 32 33 33 32 31 29 27 25 22 20 18 18 17 15 15 17 17 16 13 10 11 13 13 13 13 10 7 7 7 7 7 6 5 4 3 2 2 2 1 1 1 1 2 3 5 7 8 7 6 4 6 10 7 5 6 9 17 20 18 22 25 28 28 21 18 15 13 19 20 19 22
Wind_Direction
185 158 144 131 128 131 114 102 105 114 115 115 114 112 112 110 105 103 101 97 95 88 83 80 78 77 79 82 83 83 81 82 83 83 83 82 84 83 80 82 84 83 83 81 79 78 75 74 71 71 74 77 77 77 76 77 79 80 81 80 82 87 91 90 90 89 86 83 79 74 75 76 74 75 74 72 69 64 60 57 55 56 59 60 62
168 157 142 129 128 133 132 121 114 116 120 120 118 118 113 111 110 106 103 99 94 85 81 82 78 78 82 83 84 86 82 82 83 82 81 81 82 83 82 82 83 85 87 85 82 80 78 77 74 71 73 79 81 79 78 76 76 77 77 78 80 84 87 88 88 88 86 84 81 75 72 72 71 70 71 73 71 67 62 55 51 49 50 53 55
158 155 140 131 133 138 136 127 125 130 134 129 124 125 118 117 114 109 105 98 93 88 88 85 80 83 88 88 88 88 85 83 83 82 83 82 81 81 82 83 83 86 90 88 84 82 80 78 76 74 76 81 81 79 78 78 75 73 72 73 77 80 83 85 86 85 83 80 78 74 70 67 64 62 65 67 66 64 64 61 57 50 43 42 42
159 153 144 137 139 141 134 133 141 141 135 130 126 125 124 123 116 110 105 98 95 92 91 87 83 85 89 92 90 88 88 85 84 84 84 83 82 81 81 82 83 85 89 89 86 84 82 79 75 77 82 82 81 79 76 76 75 71 70 71 74 77 81 82 81 80 81 80 76 73 70 68 62 56 54 57 56 51 49 51 52 45 36 32 31
156 152 150 147 146 143 137 145 150 136 127 128 127 126 125 121 114 108 102 99 96 94 93 89 86 86 89 91 90 90 91 89 86 86 86 87 85 84 84 83 83 84 89 90 89 86 84 80 76 78 83 83 83 81 77 75 74 73 72 72 74 75 76 76 75 74 75 76 72 67 62 60 58 52 48 47 47 42 35 30 32 35 33 29 24
155 154 155 157 154 144 141 148 145 132 126 129 129 128 126 119 113 108 104 100 97 100 98 92 92 94 93 92 91 92 90 88 87 86 87 88 88 86 85 85 84 86 90 93 93 89 84 80 77 78 82 83 84 82 78 74 73 75 74 73 73 72 72 71 70 67 66 66 62 55 47 44 48 47 42 41 40 41 36 26 21 23 29 28 24
156 157 159 161 152 141 142 143 139 133 128 132 133 132 128 121 119 115 111 104 101 105 103 99 100 96 92 93 96 95 93 93 93 91 89 88 88 86 86 87 88 89 93 96 96 92 87 83 80 79 79 81 83 82 79 77 75 74 72 71 68 67 66 64 61 57 52 51 50 45 40 37 41 45 36 30 30 32 34 26 25 26 28 29 30
156 159 162 158 148 142 142 142 140 134 133 137 136 135 132 128 127 121 113 107 105 105 106 108 105 95 94 99 101 100 98 99 98 94 91 92 93 91 90 89 89 90 94 99 99 96 88 85 83 80 78 80 84 83 81 82 77 73 71 67 64 61 58 56 51 46 44 44 48 47 46 46 48 50 37 28 29 31 36 34 36 38 38 39 37
156 159 159 154 149 144 142 143 142 139 142 142 138 138 135 131 128 122 116 113 109 108 111 109 103 101 104 104 103 103 100 98 97 93 88 88 90 91 92 90 89 90 93 98 99 98 91 85 83 81 81 82 87 87 84 81 78 76 73 67 62 59 54 50 45 43 45 46 50 53 56 56 54 52 41 37 37 34 43 44 41 40 39 41 37
155 158 157 154 149 146 147 146 142 144 146 144 143 140 137 133 129 125 123 120 114 115 117 111 105 106 108 107 104 101 99 99 98 97 94 90 90 90 92 91 89 89 90 94 98 98 95 88 81 81 85 85 87 89 88 83 82 81 75 70 65 60 55 48 46 47 49 48 49 55 61 58 52 49 46 46 39 29 36 43 43 39 36 34 31
154 157 157 154 151 151 153 149 143 146 147 146 145 142 139 134 130 126 121 118 115 117 118 113 109 109 110 108 107 103 100 100 97 98 99 96 95 93 91 90 90 90 88 91 97 100 97 91 83 81 86 86 86 87 88 86 86 85 79 73 66 59 53 48 48 50 51 49 47 49 54 56 50 44 46 44 34 31 36 40 39 34 31 30 27
154 157 156 154 154 154 154 151 147 150 148 146 145 143 139 132 129 122 115 111 109 113 116 114 111 111 112 109 111 109 99 98 97 101 103 98 97 97 94 92 91 89 87 89 92 98 98 93 86 83 88 86 85 85 84 85 88 88 81 73 64 57 50 47 48 50 50 48 47 49 51 53 49 40 44 40 31 35 37 36 35 31 28 26 25
153 157 156 155 155 155 154 151 149 150 149 148 149 143 137 131 127 122 118 114 109 114 117 115 113 112 112 108 111 112 103 98 91 100 107 99 95 94 95 94 91 88 85 86 89 95 97 93 88 87 91 85 81 83 81 83 88 88 80 69 61 54 46 44 46 47 47 46 47 50 54 52 44 33 35 36 27 28 31 34 36 30 26 21 18
153 157 156 156 157 157 157 155 151 147 150 151 152 146 138 130 126 127 126 121 117 120 120 116 115 114 112 106 106 112 108 97 85 90 102 101 97 94 94 92 86 84 83 82 86 92 94 93 90 95 99 89 79 77 77 80 82 81 75 64 55 47 39 38 45 46 44 44 41 44 48 45 37 26 28 32 20 22 34 35 30 22 16 13 12
154 157 158 159 159 161 161 161 156 150 154 153 153 149 141 135 132 131 127 127 124 120 117 121 122 116 115 110 111 114 105 98 91 86 89 92 98 97 89 85 81 81 82 83 87 91 100 101 96 105 109 96 80 73 72 72 73 72 66 57 45 35 30 30 38 42 42 39 35 39 37 30 29 22 23 25 16 20 28 15 6 5 5 7 8
156 157 160 162 162 164 165 165 162 158 159 156 154 149 143 139 137 131 128 136 135 127 122 130 133 127 132 133 129 121 114 108 97 90 83 79 88 95 90 83 83 81 78 82 86 92 105 107 104 112 116 108 88 75 70 66 63 59 51 41 29 23 19 17 21 28 34 31 26 30 28 23 20 15 12 14 14 14 13 1 354 358 2 5 5
157 160 163 165 166 167 169 170 169 167 164 158 156 152 149 145 141 137 133 138 143 145 140 142 145 143 148 153 146 127 127 123 105 105 98 89 91 93 90 85 84 81 80 83 85 89 99 105 113 123 128 127 105 80 72 67 56 44 31 21 14 10 3 2 5 9 17 20 15 16 18 15 13 9 3 6 9 2 1 359 351 351 356 360 2
159 163 166 169 170 171 173 174 174 173 169 163 159 159 161 160 156 152 146 142 144 153 153 152 155 156 154 156 157 139 135 132 119 117 107 98 94 85 77 76 78 80 82 82 87 96 106 110 116 123 126 129 107 64 55 58 48 24 9 2 356 353 351 351 353 356 3 5 3 3 4 4 5 4 358 353 350 342 334 337 334 337 347 355 0
163 166 169 173 175 175 178 179 179 176 175 171 168 171 175 177 170 172 172 160 150 146 152 159 165 171 168 158 163 164 155 146 138 125 111 100 85 74 63 62 66 71 76 79 86 94 100 100 99 98 90 80 44 24 360 348 338 339 335 336 339 343 345 343 343 345 348 350 351 352 352 352 355 356 353 343 344 343 323 318 324 329 337 345 354
165 169 172 177 180 180 183 184 185 184 184 183 181 184 185 184 174 180 183 172 168 157 155 168 173 180 184 178 171 176 177 171 168 158 140 121 79 64 56 60 66 71 76 78 81 83 86 85 82 79 68 60 42 27 6 352 332 320 316 320 331 337 342 341 339 337 335 337 339 344 345 342 345 345 343 339 342 345 329 320 319 319 319 328 343
167 173 175 179 183 185 188 187 190 191 193 193 191 191 189 182 167 168 168 166 174 172 169 176 180 185 189 189 185 182 186 189 190 189 176 159 77 55 55 62 69 75 77 76 78 79 80 79 74 70 62 57 49 38 26 14 359 345 334 331 333 337 343 344 341 338 335 334 335 340 341 338 338 334 331 332 332 332 328 323 315 304 305 317 326
169 175 179 181 182 186 191 191 193 196 197 198 197 195 189 179 168 166 162 164 171 175 179 178 184 190 193 194 189 183 186 197 200 193 191 187 72 54 60 65 74 81 81 80 80 76 74 71 65 60 57 51 44 39 34 26 16 4 353 348 343 341 343 343 343 343 340 338 336 337 337 334 333 328 322 323 323 324 324 322 317 303 300 309 310
172 176 181 182 183 186 190 193 195 198 199 199 199 198 192 182 176 174 167 166 166 168 169 166 175 182 188 189 184 179 176 189 198 196 200 204 174 54 67 72 78 83 83 80 72 68 62 56 51 46 42 35 30 26 21 16 7 358 351 345 341 339 338 339 338 339 339 336 334 332 331 329 328 325 319 317 320 322 321 320 319 308 297 300 302
178 179 181 182 185 186 189 192 195 198 199 198 199 198 193 187 183 178 172 166 164 164 161 155 154 159 167 169 169 171 169 173 184 192 197 201 213 70 76 70 74 86 80 71 55 43 32 28 22 14 9 5 1 358 357 354 349 343 338 334 334 333 331 331 330 330 330 328 328 326 325 324 323 324 319 315 316 319 318 316 319 313 297 293 296
182 181 182 185 187 189 190 190 194 198 199 198 197 196 192 190 186 182 176 171 170 169 167 158 148 146 147 150 153 154 155 157 163 180 188 192 195 181 90 62 61 82 40 305 329 329 331 339 338 340 341 342 342 341 341 339 337 332 330 329 329 329 326 325 323 322 323 322 323 321 320 320 319 320 318 315 314 315 314 313 316 313 304 298 296
188 185 186 188 189 192 193 191 193 196 198 198 194 195 194 190 187 184 182 179 179 179 179 174 160 153 149 149 148 147 145 138 142 168 188 197 201 210 220 186 237 252 247 266 289 299 308 320 325 330 331 333 334 335 334 332 332 330 330 331 329 328 326 324 321 320 320 321 321 320 319 319 318 318 316 315 314 312 311 310 311 311 309 306 304
194 192 190 191 192 194 196 194 195 195 196 196 193 196 196 194 189 186 188 187 188 190 191 188 180 173 166 161 154 153 149 138 132 142 177 191 192 209 212 220 242 243 256 280 305 320 323 325 330 335 337 335 333 333 333 332 332 334 336 337 335 332 329 326 323 321 321 321 321 321 320 319 319 318 316 314 313 311 309 308 307 306 307 307 307
197 196 195 195 195 195 197 197 198 199 197 195 195 198 199 197 193 193 194 193 195 196 197 198 196 191 182 175 170 171 169 162 131 100 154 167 174 225 228 244 246 244 280 324 348 359 354 346 342 341 343 338 337 339 337 336 339 341 340 340 338 335 333 328 323 321 320 320 319 319 318 318 318 317 316 313 311 309 307 306 305 305 304 304 304
200 200 198 199 198 197 198 199 202 203 201 199 200 200 201 202 201 201 199 199 202 199 200 204 205 204 195 189 187 188 192 192 141 90 268 138 275 291 313 315 303 292 316 342 349 354 352 347 344 342 342 340 341 342 339 339 337 333 331 332 330 329 328 326 322 318 316 316 314 314 313 314 315 315 315 313 311 308 306 306 305 305 304 303 303
204 204 202 202 201 199 200 202 203 205 205 205 205 204 205 208 210 210 207 209 208 201 204 208 213 217 214 212 210 216 236 259 282 279 294 323 311 326 338 334 338 328 328 340 342 343 342 340 340 339 340 338 339 339 336 334 332 329 327 324 322 321 320 319 318 317 315 316 315 315 315 314 314 315 315 314 312 310 308 307 307 306 305 303 303
207 207 206 205 202 201 203 204 205 206 208 210 210 209 209 213 216 217 215 215 211 206 209 212 218 223 229 236 240 251 265 282 293 284 287 300 308 322 327 328 336 332 326 332 334 333 335 336 337 336 334 332 333 334 332 332 334 330 323 320 320 321 320 317 317 317 318 319 318 319 320 318 318 319 320 319 318 316 313 311 311 310 309 307 306
209 210 209 207 204 203 205 206 207 208 210 214 214 212 213 216 219 221 220 218 213 211 212 214 218 224 235 243 250 259 268 289 297 292 291 292 301 305 304 308 316 320 315 318 323 326 331 334 334 331 326 323 325 330 330 328 326 320 317 319 321 321 320 318 318 320 322 322 321 322 323 322 323 325 325 324 322 321 319 318 318 319 318 317 315
212 213 213 210 206 206 207 208 209 210 213 216 217 217 218 219 222 224 223 219 216 215 218 219 220 223 232 240 247 256 269 287 293 291 288 286 295 299 301 300 298 302 302 306 313 318 323 322 324 323 317 316 319 323 323 321 319 315 318 323 320 319 320 320 320 323 325 326 325 326 327 329 330 332 332 331 331 330 329 329 329 329 329 328 327
217 217 216 214 210 208 209 210 211 213 215 217 220 221 222 223 224 226 225 223 222 223 224 224 226 228 232 239 246 257 268 277 284 285 284 285 291 296 305 307 303 301 299 302 306 309 314 314 317 315 311 313 313 313 315 317 318 319 322 322 321 324 326 324 323 325 329 331 333 335 338 341 343 343 344 344 343 341 339 338 337 337 337 336 337
219 219 219 218 215 212 212 213 214 215 217 219 221 223 225 226 227 228 227 228 229 231 233 232 234 234 235 243 252 260 261 263 271 276 281 284 288 293 302 312 312 307 303 299 297 300 304 305 307 308 307 307 307 309 310 312 315 320 321 321 324 326 325 323 323 325 330 334 339 343 347 350 349 349 351 352 347 342 339 338 338 337 338 338 338
220 221 221 221 219 217 216 217 218 219 219 221 223 225 228 229 230 231 230 232 233 234 237 237 237 237 241 248 256 261 259 258 263 268 274 277 283 293 301 305 302 300 301 296 292 299 303 300 299 303 304 303 305 307 306 307 311 315 318 319 323 325 325 325 326 329 333 340 347 351 351 348 348 352 354 349 342 337 334 333 333 333 336 336 336
222 223 223 222 222 221 220 221 222 223 223 224 225 227 229 231 233 233 233 234 234 236 238 238 237 237 242 249 257 263 260 257 258 260 265 268 275 292 302 302 297 295 296 293 295 300 302 300 302 306 304 305 308 308 307 309 309 311 313 316 325 333 333 332 332 335 341 350 357 352 346 344 350 355 349 345 342 339 336 333 331 331 333 333 333
225 225 225 225 225 225 224 224 226 227 227 227 228 229 230 232 234 235 236 237 237 239 240 240 239 241 245 248 254 259 259 260 259 261 262 263 276 292 299 303 301 296 290 290 296 300 301 302 306 309 306 306 308 308 310 310 310 311 311 316 329 338 341 340 336 340 351 359 355 345 343 348 353 349 344 344 345 343 341 337 334 330 330 330 330
227 226 226 226 227 228 227 227 227 228 229 230 231 231 231 232 234 235 236 237 239 240 241 242 243 246 246 245 249 251 253 260 265 266 261 261 280 290 288 291 294 286 282 290 294 294 298 299 303 305 303 305 309 315 319 318 317 315 313 320 332 337 342 347 343 351 5 354 343 342 349 354 349 345 344 345 345 343 341 340 338 335 333 334 333
229 228 226 225 226 227 228 228 228 228 229 229 229 229 228 229 231 232 233 234 237 240 243 245 244 244 242 245 255 255 253 262 268 269 262 261 275 281 279 284 287 283 280 289 296 291 290 293 298 299 300 306 314 322 327 325 322 318 320 327 333 337 341 343 350 12 357 342 340 349 356 349 344 345 345 345 345 343 341 341 341 340 339 338 338
229 229 227 226 226 226 227 228 228 227 227 227 226 225 224 225 226 228 230 232 234 239 242 243 243 245 245 248 257 256 255 264 262 259 262 265 272 275 274 276 283 288 285 287 295 290 285 288 293 298 303 307 313 323 332 330 326 325 329 330 333 342 345 344 3 8 338 340 353 1 348 344 344 347 347 347 346 344 344 345 344 343 342 340 341
227 227 228 228 227 227 228 229 229 227 227 227 226 226 226 226 227 229 231 231 232 237 240 242 244 247 250 252 257 255 254 261 257 253 257 259 265 271 270 271 278 284 282 282 289 288 285 286 290 297 302 305 312 332 352 350 345 337 331 327 335 346 347 347 295 325 337 349 12 348 344 345 345 347 348 347 346 347 349 349 346 346 344 343 344
226 227 228 229 228 228 228 229 230 229 229 228 227 228 229 229 231 233 234 233 234 239 240 243 246 249 251 251 254 254 254 257 259 263 266 263 266 269 267 271 273 270 272 278 282 285 283 281 288 297 300 309 327 356 7 6 1 349 341 329 339 343 339 353 327 327 337 349 335 341 346 344 344 347 349 347 347 351 353 351 349 348 347 347 349
224 226 227 227 227 228 229 229 230 231 231 229 229 230 230 230 230 231 234 233 233 238 238 238 242 248 251 249 249 256 261 261 260 264 263 262 266 267 262 263 267 267 273 278 279 283 282 284 301 315 321 335 355 5 0 5 5 1 356 312 321 329 318 360 337 328 329 324 331 344 346 343 346 348 348 349 351 354 353 353 352 351 351 352 353
221 224 225 226 227 228 229 229 230 232 232 231 229 228 226 224 223 222 224 226 228 230 227 228 233 240 247 250 250 254 255 251 253 258 258 260 262 259 258 259 262 265 265 265 261 290 319 321 328 334 338 345 359 1 356 7 9 10 15 337 312 314 283 341 338 323 315 322 333 346 345 346 349 347 348 351 353 355 353 352 353 353 354 357 357
222 224 225 227 228 229 230 229 230 231 231 231 228 225 223 221 218 214 213 216 219 221 222 226 230 233 238 247 253 257 252 240 242 256 259 261 254 246 245 246 253 254 244 233 244 280 306 315 319 319 325 332 336 336 343 358 359 358 17 37 334 319 322 335 338 293 309 319 323 335 342 348 346 345 349 351 351 353 353 352 353 355 357 358 357
224 225 225 227 228 229 229 228 229 230 230 228 226 224 221 220 219 218 216 216 217 222 229 234 235 233 235 242 249 254 253 245 247 252 248 237 217 201 211 222 241 247 237 248 264 281 294 301 303 301 303 308 311 313 322 332 331 327 343 350 321 315 323 330 332 296 315 306 295 318 333 339 336 339 345 348 349 348 351 353 353 356 357 356 355
225 224 223 225 226 227 228 228 228 229 229 227 225 223 221 220 220 220 220 221 223 227 232 237 237 235 237 238 241 244 241 237 239 238 226 214 204 212 251 265 264 264 263 266 273 283 288 289 285 282 283 285 288 294 300 306 310 312 316 320 312 311 326 334 344 337 321 270 299 313 321 324 327 335 338 343 346 342 345 350 354 357 355 356 356
223 222 223 224 225 225 226 227 227 227 227 226 225 224 223 222 221 220 220 222 227 229 231 233 233 235 237 230 232 238 231 220 216 212 212 225 239 259 274 273 268 265 263 266 271 274 276 276 274 274 275 275 278 281 282 289 301 310 314 320 324 340 7 47 10 353 326 274 301 305 319 326 328 331 336 342 338 336 340 344 352 354 350 352 353
223 223 223 223 223 223 223 223 225 226 226 225 225 224 224 223 221 220 220 221 222 224 225 225 226 230 228 219 220 225 222 211 204 205 227 249 255 262 269 271 267 262 258 259 264 267 270 270 268 267 263 260 267 265 258 281 300 314 323 341 357 6 19 30 349 355 349 292 295 298 317 330 324 323 334 338 332 336 341 342 346 345 343 344 345
222 221 221 221 221 221 221 222 224 225 225 224 225 224 223 222 222 221 222 222 220 220 218 216 219 218 211 210 212 211 210 208 207 228 255 255 247 254 265 268 263 256 248 247 251 256 261 257 244 227 198 173 154 126 90 49 32 24 30 32 31 31 24 3 344 352 354 325 311 304 315 323 314 310 322 328 331 339 342 343 347 342 340 339 337